Location: Bonac
(42.8765°N, 0.9753°E)
Time: 14:54:15
(UTC+00:00)

Cosmos 1959 Rocket - Visible Passes

Search period start: 11 April 2026 00:00
Search period end: 21 April 2026 00:00
Orbit: 947 x 996 km, 83.0° (Epoch: 11 April)

Date Brightness Start Highest point End Pass type
(mag) Time Alt. Az. Time Alt. Az. Time Alt. Az.
11 Apr 4.8 20:15:53 24° SSE 20:19:19 47° E 20:25:20 10° NNE visible
11 Apr 6.2 22:00:22 14° SW 22:04:48 29° WNW 22:10:14 10° NNW visible
12 Apr 6.2 18:57:00 10° E 18:59:07 12° ENE 19:01:15 10° ENE visible
12 Apr 4.4 20:38:40 20° S 20:43:19 81° E 20:49:41 10° N visible
12 Apr 6.9 22:25:25 10° WSW 22:29:23 17° WNW 22:33:21 10° NNW visible
13 Apr 5.7 19:18:07 10° SE 19:22:44 22° E 19:27:22 10° NE visible
13 Apr 5.0 21:01:14 10° SSW 21:07:28 60° W 21:13:45 10° N visible
14 Apr 5.0 19:40:47 10° SSE 19:46:31 38° E 19:52:15 10° NNE visible
14 Apr 5.9 21:26:03 10° SW 21:31:47 35° WNW 21:37:32 10° N visible
15 Apr 4.5 20:04:12 10° S 20:10:27 65° E 20:16:43 10° NNE visible
15 Apr 6.7 21:51:38 10° WSW 21:56:17 21° WNW 22:00:56 10° NNW visible
16 Apr 4.7 20:28:12 10° SSW 20:34:32 75° W 20:40:53 10° N visible
16 Apr 7.2 22:18:43 10° W 22:20:58 12° WNW 22:23:13 10° NW visible
17 Apr 5.3 19:08:21 10° SE 19:13:44 30° E 19:19:06 10° NNE visible
17 Apr 5.6 20:52:48 10° SSW 20:58:47 43° WNW 21:04:48 10° N visible
18 Apr 4.7 19:31:30 10° SSE 19:37:37 52° E 19:43:42 10° NNE visible
18 Apr 6.5 21:18:03 10° SW 21:23:12 26° WNW 21:28:22 10° NNW visible
19 Apr 4.5 19:55:17 10° S 20:01:38 89° ESE 20:07:59 10° N visible
19 Apr 7.2 21:44:20 10° W 21:47:48 15° WNW 21:51:17 10° NNW visible
20 Apr 5.3 20:19:38 10° SSW 20:25:49 54° WNW 20:31:59 10° N visible
